Hourly Data Report for October 12, 2015

All times are specified in Local Standard Time (LST). Add 1 hour to adjust for Daylight Saving Time where and when it is observed.

RESOLUTE BAY A
NUNAVUT

74°43'01.000" N
94°58'10.000" W
67.70 m
2403498
71924
YRB

Download Data

Hourly Data (October 2015)
Hourly Data Report for October 12, 2015
Temp Definition
°C
Dew Point Temp Definition
°C
Rel Hum Definition
%
Wind Dir Definition
10's deg

Wind Spd Definition
km/h
Visibility Definition
km
Stn Press Definition
kPa
Hmdx Definition


Wind Chill Definition


Weather Definition


TIME
00:00 Legend Double Dagger -6.1 -7.9 87 5 35 9.7 99.85   -15 Blowing Snow
01:00 Legend Double Dagger -6.0 -7.8 87 6 34 9.7 99.82   -15 Snow,Blowing Snow
02:00 Legend Double Dagger -6.1 -8.1 86 6 35 9.7 99.79   -15 Snow,Blowing Snow
03:00 Legend Double Dagger -6.6 -8.4 87 4 28 9.7 99.76   -15 Snow,Blowing Snow
04:00 Legend Double Dagger -6.3 -8.0 88 5 33 9.7 99.73   -15 Snow,Blowing Snow
05:00 Legend Double Dagger -6.6 -8.3 88 4 35 9.7 99.70   -16 Snow,Blowing Snow
06:00 Legend Double Dagger -6.8 -8.5 88 4 38 9.7 99.67   -16 Snow,Blowing Snow
07:00 Legend Double Dagger -7.3 -8.8 89 3 34 8.1 99.67   -16 Snow,Blowing Snow
08:00 Legend Double Dagger -7.7 -9.4 88 2 32 8.1 99.65   -17 Snow
09:00 Legend Double Dagger -7.8 -9.6 87 2 31 6.4 99.63   -17 Snow
10:00 Legend Double Dagger -7.8 -9.6 87 2 29 9.7 99.60   -17 Snow
11:00 Legend Double Dagger -7.8 -9.6 87 3 28 9.7 99.57   -16 Snow
12:00 Legend Double Dagger -8.1 -9.9 87 2 32 9.7 99.55   -17 Snow
13:00 Legend Double Dagger -8.2 -10.0 87 2 36 6.4 99.51   -18 Snow
14:00 Legend Double Dagger -8.6 -10.5 86 1 40 12.9 99.49   -19 Snow
15:00 Legend Double Dagger -8.9 -10.7 87 2 43 12.9 99.45   -20 Snow
16:00 Legend Double Dagger -9.8 -11.6 87 2 41 6.4 99.45   -21 Snow
17:00 Legend Double Dagger -10.4 -12.3 86 2 39 6.4 99.45   -21 Snow
18:00 Legend Double Dagger -10.4 -12.2 87 3 35 9.7 99.42   -21 Snow
19:00 Legend Double Dagger -10.5 -12.4 86 2 39 12.9 99.41   -21 Snow,Blowing Snow
20:00 Legend Double Dagger -10.8 -12.7 86 2 40 12.9 99.38   -22 Snow,Blowing Snow
21:00 Legend Double Dagger -11.5 -13.3 87 2 39 6.4 99.38   -23 Snow,Blowing Snow
22:00 Legend Double Dagger -12.7 -14.6 86 2 43 6.4 99.36   -25 Snow,Blowing Snow
23:00 Legend Double Dagger -13.6 -15.6 85 2 41 6.4 99.35   -26 Snow,Blowing Snow

Notes on Data Quality.

Legend

  • E = Estimated
  • M = Missing
  • NA = Not Available
  • ‡ = Partner data that is not subject to review by the National Climate Archives
Date modified: